BTK6764 WADD-WALL

Flight info

Callsign BTK6764
Flight time 1h 15m
Altitude 39000
Route HOSTY W46 ISRUL
Aircraft A333/H-SDE3GHIJ2J3J5M1RVWXY/LB2D1

Departure

Time 2026-05-06 09:07
Airport Denpasar I Gusti Ngurah Rai International Airport (WADD)

Arrival

Time 2026-05-06 10:22
Airport Sultan Aji Muhammad Sulaiman Sepinggan International Airport (WALL)
Time Latitude Longitude Altitude Speed Heading
2026-05-06 08:46 -8.74564 115.16542 31 ft 0 kts 358°
2026-05-06 08:57 -8.74570 115.16542 30 ft 2 kts 358°
2026-05-06 08:57 -8.74590 115.16543 30 ft 3 kts 358°
2026-05-06 08:57 -8.74611 115.16543 30 ft 3 kts 358°
2026-05-06 08:57 -8.74631 115.16544 30 ft 3 kts 357°
2026-05-06 08:58 -8.74651 115.16546 30 ft 3 kts 342°
2026-05-06 08:58 -8.74669 115.16554 30 ft 3 kts 320°
2026-05-06 08:58 -8.74681 115.16568 30 ft 3 kts 290°
2026-05-06 08:58 -8.74685 115.16583 30 ft 1 kts 268°
2026-05-06 08:59 -8.74685 115.16584 30 ft 0 kts 267°
2026-05-06 09:00 -8.74685 115.16577 30 ft 3 kts 268°
2026-05-06 09:01 -8.74687 115.16542 30 ft 6 kts 268°
2026-05-06 09:01 -8.74689 115.16496 30 ft 8 kts 268°
2026-05-06 09:01 -8.74691 115.16430 30 ft 11 kts 268°
2026-05-06 09:01 -8.74694 115.16357 30 ft 6 kts 268°
2026-05-06 09:02 -8.74697 115.16300 30 ft 10 kts 268°
2026-05-06 09:02 -8.74700 115.16223 30 ft 12 kts 268°
2026-05-06 09:02 -8.74703 115.16166 30 ft 7 kts 268°
2026-05-06 09:02 -8.74705 115.16110 30 ft 9 kts 268°
2026-05-06 09:03 -8.74708 115.16035 30 ft 12 kts 268°
2026-05-06 09:03 -8.74712 115.15945 30 ft 14 kts 268°
2026-05-06 09:03 -8.74715 115.15851 30 ft 12 kts 268°
2026-05-06 09:03 -8.74717 115.15762 30 ft 14 kts 268°
2026-05-06 09:04 -8.74721 115.15659 30 ft 14 kts 268°
2026-05-06 09:04 -8.74725 115.15563 30 ft 15 kts 268°
2026-05-06 09:04 -8.74729 115.15477 30 ft 4 kts 268°
2026-05-06 09:04 -8.74738 115.15434 30 ft 8 kts 239°
2026-05-06 09:05 -8.74782 115.15401 30 ft 4 kts 193°
2026-05-06 09:05 -8.74826 115.15396 30 ft 8 kts 178°
2026-05-06 09:05 -8.74883 115.15424 30 ft 11 kts 119°
2026-05-06 09:05 -8.74892 115.15473 30 ft 0 kts 90°
2026-05-06 09:06 -8.74891 115.15532 30 ft 31 kts 88°
2026-05-06 09:06 -8.74876 115.15942 30 ft 85 kts 89°
2026-05-06 09:06 -8.74846 115.16704 32 ft 134 kts 89°
2026-05-06 09:06 -8.74811 115.17782 221 ft 162 kts 89°
2026-05-06 09:07 -8.74767 115.18975 667 ft 174 kts 91°
2026-05-06 09:07 -8.74727 115.20194 1432 ft 173 kts 90°
2026-05-06 09:07 -8.74668 115.21414 1985 ft 186 kts 90°
2026-05-06 09:07 -8.74606 115.22840 2100 ft 220 kts 89°
2026-05-06 09:08 -8.74225 115.24459 2224 ft 257 kts 64°
2026-05-06 09:08 -8.73255 115.25988 3072 ft 258 kts 58°
2026-05-06 09:08 -8.72249 115.27514 3882 ft 263 kts 58°
2026-05-06 09:08 -8.71222 115.29055 4723 ft 266 kts 57°
2026-05-06 09:09 -8.70179 115.30610 5569 ft 268 kts 57°
2026-05-06 09:09 -8.69126 115.32176 6379 ft 272 kts 57°
2026-05-06 09:09 -8.68057 115.33762 7172 ft 275 kts 57°
2026-05-06 09:09 -8.66971 115.35369 7944 ft 278 kts 57°
2026-05-06 09:10 -8.65874 115.36992 8698 ft 282 kts 57°
2026-05-06 09:10 -8.64761 115.38637 9431 ft 285 kts 57°
2026-05-06 09:10 -8.63630 115.40306 10123 ft 290 kts 56°
2026-05-06 09:10 -8.62458 115.42035 10435 ft 311 kts 56°
2026-05-06 09:11 -8.61185 115.43921 10523 ft 337 kts 56°
2026-05-06 09:11 -8.59833 115.45923 11004 ft 347 kts 56°
2026-05-06 09:11 -8.58466 115.47942 11767 ft 351 kts 56°
2026-05-06 09:11 -8.57073 115.49993 12434 ft 356 kts 56°
2026-05-06 09:12 -8.55661 115.52067 13132 ft 361 kts 56°
2026-05-06 09:12 -8.54228 115.54168 13793 ft 366 kts 56°
2026-05-06 09:12 -8.52773 115.56298 14456 ft 370 kts 56°
2026-05-06 09:12 -8.51303 115.58449 15110 ft 375 kts 56°
2026-05-06 09:13 -8.49811 115.60628 15737 ft 379 kts 55°
2026-05-06 09:13 -8.48301 115.62834 16373 ft 384 kts 55°
2026-05-06 09:13 -8.46690 115.64996 16958 ft 389 kts 45°
2026-05-06 09:13 -8.44544 115.66648 17565 ft 391 kts 27°
2026-05-06 09:14 -8.41979 115.67561 18135 ft 393 kts
2026-05-06 09:14 -8.39253 115.67673 18759 ft 394 kts 358°
2026-05-06 09:14 -8.36501 115.67590 19343 ft 398 kts 356°
2026-05-06 09:14 -8.33728 115.67481 19943 ft 401 kts 356°
2026-05-06 09:15 -8.30934 115.67353 20529 ft 403 kts 356°
2026-05-06 09:15 -8.28116 115.67214 21084 ft 407 kts 356°
2026-05-06 09:15 -8.25277 115.67065 21601 ft 410 kts 356°
2026-05-06 09:15 -8.22417 115.66909 22146 ft 413 kts 356°
2026-05-06 09:16 -8.19536 115.66748 22650 ft 416 kts 356°
2026-05-06 09:16 -8.16640 115.66583 23146 ft 419 kts 356°
2026-05-06 09:16 -8.13723 115.66414 23629 ft 421 kts 356°
2026-05-06 09:16 -8.10786 115.66242 24098 ft 424 kts 356°
2026-05-06 09:17 -8.07826 115.66067 24528 ft 428 kts 356°
2026-05-06 09:17 -8.04845 115.65891 24948 ft 431 kts 355°
2026-05-06 09:17 -8.01830 115.65712 25374 ft 434 kts 355°
2026-05-06 09:17 -7.98808 115.65532 25786 ft 438 kts 355°
2026-05-06 09:18 -7.95750 115.65348 26162 ft 441 kts 355°
2026-05-06 09:18 -7.92675 115.65165 26568 ft 444 kts 355°
2026-05-06 09:18 -7.89576 115.64979 26953 ft 448 kts 355°
2026-05-06 09:18 -7.86455 115.64793 27325 ft 451 kts 355°
2026-05-06 09:19 -7.83317 115.64604 27692 ft 454 kts 355°
2026-05-06 09:19 -7.81180 115.64476 27931 ft 456 kts 355°
2026-05-06 09:19 -7.76964 115.64223 28419 ft 460 kts 355°
2026-05-06 09:19 -7.73752 115.64030 28768 ft 463 kts 355°
2026-05-06 09:20 -7.71576 115.63899 28994 ft 465 kts 355°
2026-05-06 09:20 -7.68329 115.63704 29338 ft 468 kts 355°
2026-05-06 09:20 -7.65114 115.63511 29667 ft 471 kts 355°
2026-05-06 09:20 -7.61841 115.63314 30066 ft 472 kts 355°
2026-05-06 09:21 -7.58567 115.63118 30540 ft 471 kts 355°
2026-05-06 09:21 -7.55297 115.62949 30984 ft 471 kts 356°
2026-05-06 09:21 -7.52021 115.62851 31396 ft 471 kts 357°
2026-05-06 09:21 -7.48749 115.62762 31845 ft 470 kts 357°
2026-05-06 09:22 -7.45482 115.62674 32267 ft 469 kts 357°
2026-05-06 09:22 -7.42218 115.62586 32677 ft 469 kts 357°
2026-05-06 09:22 -7.38956 115.62498 33085 ft 469 kts 357°
2026-05-06 09:22 -7.35697 115.62410 33472 ft 468 kts 357°
2026-05-06 09:23 -7.32438 115.62322 33865 ft 468 kts 357°
2026-05-06 09:23 -7.29190 115.62234 34229 ft 467 kts 357°
2026-05-06 09:23 -7.25942 115.62146 34637 ft 466 kts 357°
2026-05-06 09:23 -7.22685 115.62057 34786 ft 471 kts 357°
2026-05-06 09:24 -7.19399 115.61968 34824 ft 474 kts 357°
2026-05-06 09:24 -7.12793 115.61789 34835 ft 474 kts 357°
2026-05-06 09:25 -7.06246 115.61612 34833 ft 467 kts 357°
2026-05-06 09:25 -6.99826 115.61438 34833 ft 461 kts 357°
2026-05-06 09:26 -6.93438 115.61265 34832 ft 458 kts 357°
2026-05-06 09:26 -6.87076 115.61164 34828 ft 459 kts
2026-05-06 09:27 -6.80816 115.62480 34834 ft 462 kts 15°
2026-05-06 09:27 -6.74601 115.64202 34831 ft 465 kts 15°
2026-05-06 09:28 -6.68329 115.65808 34830 ft 465 kts 12°
2026-05-06 09:28 -6.62032 115.67277 34828 ft 463 kts 13°
2026-05-06 09:29 -6.55775 115.68756 34826 ft 461 kts 13°
2026-05-06 09:29 -6.49549 115.70234 34826 ft 459 kts 13°
2026-05-06 09:30 -6.43331 115.71712 34825 ft 459 kts 13°
2026-05-06 09:30 -6.37101 115.73195 34824 ft 461 kts 13°
2026-05-06 09:31 -6.30848 115.74683 34823 ft 462 kts 13°
2026-05-06 09:31 -6.24583 115.76175 34821 ft 463 kts 13°
2026-05-06 09:32 -6.18329 115.77664 34820 ft 462 kts 13°
2026-05-06 09:32 -6.12080 115.79152 34818 ft 461 kts 13°
2026-05-06 09:33 -6.05841 115.80638 34817 ft 461 kts 13°
2026-05-06 09:33 -5.99605 115.82122 34816 ft 461 kts 13°
2026-05-06 09:34 -5.93362 115.83608 34815 ft 461 kts 13°
2026-05-06 09:34 -5.87113 115.85096 34813 ft 462 kts 13°
2026-05-06 09:35 -5.80860 115.86584 34812 ft 462 kts 13°
2026-05-06 09:35 -5.74610 115.88071 34810 ft 461 kts 13°
2026-05-06 09:36 -5.68376 115.89554 34809 ft 460 kts 13°
2026-05-06 09:36 -5.62151 115.91034 34808 ft 460 kts 13°
2026-05-06 09:37 -5.55928 115.92514 34807 ft 460 kts 13°
2026-05-06 09:37 -5.49705 115.93993 34805 ft 459 kts 13°
2026-05-06 09:38 -5.43487 115.95471 34804 ft 460 kts 13°
2026-05-06 09:38 -5.37259 115.96951 34802 ft 460 kts 13°
2026-05-06 09:39 -5.31037 115.98429 34801 ft 459 kts 13°
2026-05-06 09:39 -5.24823 115.99905 34799 ft 459 kts 13°
2026-05-06 09:40 -5.18617 116.01378 34798 ft 457 kts 14°
2026-05-06 09:40 -5.09333 116.03582 34796 ft 457 kts 14°
2026-05-06 09:41 -5.03139 116.05053 34788 ft 457 kts 14°
2026-05-06 09:41 -4.96945 116.06523 34785 ft 458 kts 14°
2026-05-06 09:42 -4.90753 116.07991 34784 ft 457 kts 14°
2026-05-06 09:42 -4.84570 116.09455 34783 ft 456 kts 14°
2026-05-06 09:43 -4.78396 116.10918 34782 ft 456 kts 14°
2026-05-06 09:43 -4.72225 116.12381 34782 ft 455 kts 14°
2026-05-06 09:44 -4.66062 116.13842 34781 ft 455 kts 14°
2026-05-06 09:44 -4.59894 116.15305 34781 ft 455 kts 14°
2026-05-06 09:45 -4.53733 116.16765 34780 ft 455 kts 14°
2026-05-06 09:45 -4.47570 116.18227 34779 ft 455 kts 14°
2026-05-06 09:46 -4.41414 116.19686 34779 ft 454 kts 14°
2026-05-06 09:46 -4.35257 116.21145 34778 ft 455 kts 14°
2026-05-06 09:47 -4.29097 116.22605 34778 ft 455 kts 14°
2026-05-06 09:47 -4.22933 116.24066 34778 ft 455 kts 14°
2026-05-06 09:48 -4.16773 116.25526 34777 ft 455 kts 14°
2026-05-06 09:48 -4.10605 116.26988 34777 ft 455 kts 14°
2026-05-06 09:49 -4.04489 116.28437 34777 ft 455 kts 14°
2026-05-06 09:49 -3.98332 116.29895 34777 ft 454 kts 14°
2026-05-06 09:50 -3.92173 116.31354 34776 ft 454 kts 14°
2026-05-06 09:50 -3.86020 116.32811 34776 ft 454 kts 14°
2026-05-06 09:51 -3.79870 116.34267 34776 ft 454 kts 14°
2026-05-06 09:51 -3.73706 116.35851 34776 ft 454 kts 17°
2026-05-06 09:52 -3.67639 116.37573 34776 ft 453 kts 17°
2026-05-06 09:52 -3.61578 116.39294 34776 ft 452 kts 17°
2026-05-06 09:53 -3.55525 116.41013 34776 ft 452 kts 17°
2026-05-06 09:53 -3.49468 116.42732 34769 ft 452 kts 17°
2026-05-06 09:54 -3.43411 116.44452 34751 ft 453 kts 17°
2026-05-06 09:54 -3.37350 116.46173 34725 ft 453 kts 17°
2026-05-06 09:55 -3.31286 116.47895 34688 ft 453 kts 17°
2026-05-06 09:55 -3.25271 116.49602 34640 ft 452 kts 17°
2026-05-06 09:56 -3.19181 116.51328 34579 ft 452 kts 17°
2026-05-06 09:56 -3.13132 116.53041 34508 ft 452 kts 17°
2026-05-06 09:57 -3.07094 116.54750 34425 ft 449 kts 17°
2026-05-06 09:57 -3.01169 116.56421 34275 ft 436 kts 17°
2026-05-06 09:58 -2.98350 116.57212 34071 ft 414 kts 17°
2026-05-06 09:58 -2.95580 116.57985 33851 ft 416 kts 17°
2026-05-06 09:58 -2.92773 116.58771 33688 ft 422 kts 17°
2026-05-06 09:58 -2.89928 116.59569 33549 ft 426 kts 17°
2026-05-06 09:59 -2.87065 116.60372 33422 ft 429 kts 17°
2026-05-06 09:59 -2.84185 116.61180 33302 ft 430 kts 17°
2026-05-06 09:59 -2.81310 116.61987 33183 ft 430 kts 18°
2026-05-06 09:59 -2.78424 116.62798 33065 ft 430 kts 17°
2026-05-06 10:00 -2.75541 116.63609 32947 ft 430 kts 17°
2026-05-06 10:00 -2.72662 116.64419 32827 ft 430 kts 17°
2026-05-06 10:00 -2.69783 116.65230 32706 ft 430 kts 17°
2026-05-06 10:00 -2.66908 116.66039 32585 ft 430 kts 17°
2026-05-06 10:01 -2.64030 116.66851 32462 ft 429 kts 18°
2026-05-06 10:01 -2.61159 116.67661 32339 ft 429 kts 18°
2026-05-06 10:01 -2.58284 116.68473 32213 ft 429 kts 18°
2026-05-06 10:01 -2.55414 116.69284 32086 ft 428 kts 18°
2026-05-06 10:02 -2.50658 116.70630 31868 ft 427 kts 18°
2026-05-06 10:02 -2.47760 116.71450 31731 ft 426 kts 18°
2026-05-06 10:02 -2.44912 116.72255 31594 ft 425 kts 18°
2026-05-06 10:03 -2.42066 116.73060 31454 ft 424 kts 18°
2026-05-06 10:03 -2.39248 116.73857 31299 ft 416 kts 18°
2026-05-06 10:03 -2.36493 116.74634 31115 ft 407 kts 18°
2026-05-06 10:03 -2.33794 116.75394 30904 ft 399 kts 18°
2026-05-06 10:04 -2.31145 116.76139 30668 ft 391 kts 18°
2026-05-06 10:04 -2.28548 116.76868 30409 ft 385 kts 18°
2026-05-06 10:04 -2.25990 116.77585 30129 ft 378 kts 18°
2026-05-06 10:04 -2.23476 116.78289 29832 ft 373 kts 18°
2026-05-06 10:05 -2.20993 116.78983 29522 ft 368 kts 18°
2026-05-06 10:05 -2.18543 116.79670 29203 ft 363 kts 18°
2026-05-06 10:05 -2.16124 116.80346 28877 ft 359 kts 18°
2026-05-06 10:05 -2.13735 116.81016 28546 ft 354 kts 18°
2026-05-06 10:06 -2.11375 116.81677 28208 ft 351 kts 18°
2026-05-06 10:06 -2.09040 116.82332 27867 ft 347 kts 18°
2026-05-06 10:06 -2.06730 116.82981 27522 ft 343 kts 18°
2026-05-06 10:06 -2.04443 116.83624 27175 ft 340 kts 17°
2026-05-06 10:07 -2.02180 116.84261 26825 ft 336 kts 17°
2026-05-06 10:07 -1.99938 116.84892 26473 ft 333 kts 17°
2026-05-06 10:07 -1.97715 116.85518 26122 ft 330 kts 18°
2026-05-06 10:07 -1.95518 116.86137 25771 ft 327 kts 17°
2026-05-06 10:08 -1.93340 116.86752 25418 ft 324 kts 17°
2026-05-06 10:08 -1.91182 116.87360 25065 ft 321 kts 17°
2026-05-06 10:08 -1.89047 116.87963 24711 ft 318 kts 17°
2026-05-06 10:08 -1.86930 116.88563 24356 ft 315 kts 17°
2026-05-06 10:09 -1.84828 116.89158 24000 ft 312 kts 17°
2026-05-06 10:09 -1.82750 116.89748 23645 ft 309 kts 17°
2026-05-06 10:09 -1.80690 116.90333 23292 ft 306 kts 17°
2026-05-06 10:09 -1.78646 116.90914 22940 ft 304 kts 17°
2026-05-06 10:10 -1.76623 116.91491 22590 ft 301 kts 17°
2026-05-06 10:10 -1.74617 116.92064 22242 ft 298 kts 17°
2026-05-06 10:10 -1.72630 116.92633 21895 ft 296 kts 17°
2026-05-06 10:10 -1.70661 116.93197 21549 ft 293 kts 17°
2026-05-06 10:11 -1.68721 116.93756 21158 ft 282 kts 17°
2026-05-06 10:11 -1.66867 116.94290 20717 ft 276 kts 17°
2026-05-06 10:11 -1.65021 116.94823 20331 ft 276 kts 17°
2026-05-06 10:11 -1.63180 116.95355 19959 ft 275 kts 17°
2026-05-06 10:12 -1.61343 116.95889 19593 ft 274 kts 17°
2026-05-06 10:12 -1.59484 116.96415 18920 ft 284 kts 16°
2026-05-06 10:12 -1.57492 116.96980 17807 ft 310 kts 16°
2026-05-06 10:12 -1.55366 116.97586 16730 ft 333 kts 16°
2026-05-06 10:13 -1.53098 116.98232 16341 ft 331 kts 16°
2026-05-06 10:13 -1.50922 116.98853 16078 ft 324 kts 16°
2026-05-06 10:13 -1.48777 116.99466 15678 ft 323 kts 16°
2026-05-06 10:13 -1.46615 117.00085 15189 ft 325 kts 16°
2026-05-06 10:14 -1.44472 117.00698 14887 ft 313 kts 16°
2026-05-06 10:14 -1.42413 117.01287 13860 ft 306 kts 16°
2026-05-06 10:14 -1.40377 117.01870 12739 ft 303 kts 16°
2026-05-06 10:14 -1.38360 117.02447 11630 ft 300 kts 16°
2026-05-06 10:15 -1.36356 117.03021 10504 ft 298 kts 16°
2026-05-06 10:15 -1.34389 117.03650 9378 ft 295 kts 21°
2026-05-06 10:15 -1.32476 117.04378 8254 ft 293 kts 22°
2026-05-06 10:15 -1.30584 117.05116 7129 ft 290 kts 22°
2026-05-06 10:16 -1.28798 117.06017 6001 ft 286 kts 36°
2026-05-06 10:16 -1.27214 117.07206 4879 ft 283 kts 37°
2026-05-06 10:16 -1.25640 117.08376 3755 ft 281 kts 37°
2026-05-06 10:16 -1.24023 117.09457 2652 ft 279 kts 23°
2026-05-06 10:17 -1.22205 117.09781 2160 ft 254 kts 354°
2026-05-06 10:17 -1.20664 117.09253 2024 ft 221 kts 323°
2026-05-06 10:17 -1.19751 117.08115 1996 ft 207 kts 289°
2026-05-06 10:17 -1.19644 117.06728 1996 ft 200 kts 255°
2026-05-06 10:18 -1.20103 117.05407 2020 ft 206 kts 248°
2026-05-06 10:18 -1.20640 117.04086 2002 ft 201 kts 246°
2026-05-06 10:18 -1.21158 117.02849 2027 ft 184 kts 246°
2026-05-06 10:18 -1.21643 117.01699 1998 ft 176 kts 246°
2026-05-06 10:19 -1.22105 117.00596 1990 ft 169 kts 247°
2026-05-06 10:19 -1.22548 116.99556 1964 ft 157 kts 246°
2026-05-06 10:19 -1.22969 116.98569 1766 ft 152 kts 246°
2026-05-06 10:19 -1.23371 116.97621 1542 ft 144 kts 246°
2026-05-06 10:20 -1.23754 116.96715 1341 ft 139 kts 247°
2026-05-06 10:20 -1.24130 116.95832 1161 ft 138 kts 247°
2026-05-06 10:20 -1.24503 116.94952 985 ft 138 kts 247°
2026-05-06 10:20 -1.24872 116.94072 806 ft 137 kts 246°
2026-05-06 10:21 -1.25247 116.93194 625 ft 137 kts 247°
2026-05-06 10:21 -1.25627 116.92321 414 ft 138 kts 246°
2026-05-06 10:21 -1.25995 116.91451 235 ft 135 kts 248°
2026-05-06 10:21 -1.26351 116.90581 75 ft 134 kts 247°
2026-05-06 10:22 -1.26703 116.89776 30 ft 109 kts 249°
2026-05-06 10:22 -1.26917 116.89261 29 ft 53 kts 248°
2026-05-06 10:22 -1.27012 116.89029 29 ft 25 kts 253°
2026-05-06 10:22 -1.26926 116.88917 29 ft 20 kts 340°
2026-05-06 10:23 -1.26857 116.88967 29 ft 12 kts 64°
2026-05-06 10:23 -1.26819 116.89049 29 ft 14 kts 67°
2026-05-06 10:23 -1.26779 116.89145 29 ft 16 kts 67°
2026-05-06 10:23 -1.26734 116.89252 29 ft 17 kts 67°
2026-05-06 10:24 -1.26681 116.89365 29 ft 18 kts 51°
2026-05-06 10:24 -1.26637 116.89471 29 ft 17 kts 70°
2026-05-06 10:24 -1.26592 116.89584 29 ft 18 kts 67°
2026-05-06 10:24 -1.26550 116.89683 29 ft 15 kts 67°
2026-05-06 10:25 -1.26486 116.89767 29 ft 15 kts
2026-05-06 10:25 -1.26412 116.89757 29 ft 9 kts 336°
2026-05-06 10:25 -1.26373 116.89741 29 ft 0 kts 338°
2026-05-06 10:25 -1.26368 116.89739 29 ft 0 kts 338°